ONEWEB-0067 (45425 NORAD) Tracking and Keplerian Element Data

This shows tracking and keplerian element data for the satellite.

Feedback or suggestion? Click here.




ElementValue
Catalog45425
NameONEWEB-0067
Epoch Orbit1622
Epoch Day189.16667824
Epoch Year2020
RAAN103.853
Inclination87.5606
Eccentricity0.0023121
Argument of Perigee255.9289
Mean Anonmoly254.1293
Mean Motion14.90084498
Decay Rate0.00061582
L11 45425U 20020B 20189.16667824 .00061582 00000-0 62939-2 0 9997
L22 45425 87.5606 103.8530 0023121 255.9289 254.1293 14.90084498 16227

Live tracking and technical data element details for ONEWEB-0067 (NORAD 45425). ONEWEB-0067 can be tracked NOW for your location showing map with azimuth and elevation plus other details from your city location.

Track the satellite on the map from your city or location and see movement details for azimuth, elevation, latitude, longitude, range, height, and movement on the map or in text.







IsCatalogInMostPopularTable: catalog: 45425, numindb: 27
Update: records affected: 1



GetName: 45425 ONEWEB-0067

Hit Count: updated at: Wed, 08 Jul 2020 05:03:51 GMT